GOMX-1 (39430 NORAD) Tracking and Keplerian Element Data

This shows tracking and keplerian element data for the satellite.

Feedback or suggestion? Click here.




ElementValue
Catalog39430
NameGOMX-1
Epoch Orbit58009
Epoch Day286.89245641
Epoch Year2024
RAAN154.1255
Inclination97.7122
Eccentricity0.013572
Argument of Perigee238.0173
Mean Anonmoly120.7781
Mean Motion14.65462867
Decay Rate6.382E-05
L11 39430U 13066Q 24286.89245641 .00006382 00000+0 10365-2 0 9991
L22 39430 97.7122 154.1255 0135720 238.0173 120.7781 14.65462867580091



Live tracking and technical data element details for GOMX-1 (NORAD 39430). GOMX-1 can be tracked NOW for your location showing map with azimuth and elevation plus other details from your city location.







IsCatalogInMostPopularTable: catalog: 39430, numindb: 609
Update: records affected: 1



GetName: 39430 GOMX-1

Hit Count: updated at: Wed, 04 Dec 2024 12:00:54 GMT